Edwards AFB, CA

12:47 AM PDT on August 21, 2017 (GMT -0700)
Edwards Air Force Base

Weather History for KEDW - January, 2013

Change the Weather History Date:

Wednesday, January 30, 2013

  Actual Average Record
Temperature  
Mean Temperature 44 °F -  
Max Temperature 61 °F 58 °F 73 °F (2003)
Min Temperature 27 °F 30 °F 19 °F (2002)
Degree Days  
Heating Degree Days 21    
Moisture  
Dew Point 31 °F    
Average Humidity 64    
Maximum Humidity 99    
Minimum Humidity 29    
Precipitation  
Precipitation 0.00 in - - ()
Sea Level Pressure  
Sea Level Pressure 30.31 in    
Wind  
Wind Speed 2 mph (North)    
Max Wind Speed 6 mph    
Max Gust Speed -    
Visibility 10 miles    
Events      
Averages and records for this station are not official NWS values.
T = Trace of Precipitation, MM = Missing Value Source: NWS Daily Summary

Daily Weather History Graph

Daily Weather History Graph

Search for Another Location

Airport or City:

Trip Planner

Search our weather history database for the weather conditions in past years. The results will help you decide how hot, cold, wet, or windy it might be!

Date:

Astronomy

Jan. 30, 2013 Rise Set
Actual Time 6:51 AM PST 5:18 PM PST
Civil Twilight 6:24 AM PST 5:45 PM PST
Nautical Twilight 5:54 AM PST 6:15 PM PST
Astronomical Twilight 5:24 AM PST 6:45 PM PST
Moon 9:10 PM PST (1/30) 8:32 AM PST (1/30)
Length of Visible Light 11h 20m
Length of Day
10h 27m
Waning Gibbous, 87% of the Moon is Illuminated
Jan 30
Waning Gibbous
Feb 3
Last Quarter
Feb 9
New
Feb 17
First Quarter
Feb 25
Full

Hourly Weather History & Observations

Time (PST) Temp. Windchill Dew Point Humidity Pressure Visibility Wind Dir Wind Speed Gust Speed Precip Events Conditions
12:58 AM 35.2 °F - 30.9 °F 84% 30.27 in 10.0 mi Calm Calm - N/A   Clear
1:58 AM 32.7 °F 29.6 °F 30.2 °F 90% 30.30 in 10.0 mi NNE 3.5 mph - N/A   Clear
2:58 AM 31.3 °F - 28.8 °F 90% 30.29 in 10.0 mi NE 2.3 mph - N/A   Clear
3:58 AM 32.2 °F 26.7 °F 30.2 °F 92% 30.31 in 10.0 mi North 5.8 mph - N/A   Clear
4:58 AM 31.5 °F 26.8 °F 29.7 °F 93% 30.32 in 10.0 mi North 4.6 mph - N/A   Clear
5:58 AM 31.3 °F - 30.0 °F 95% 30.34 in 40.0 mi North 1.2 mph - N/A   Partly Cloudy
6:58 AM 27.7 °F - 27.5 °F 99% 30.37 in 90.0 mi SW 2.3 mph - N/A   Scattered Clouds
7:58 AM 32.4 °F 27.9 °F 32.2 °F 99% 30.39 in 90.0 mi West 4.6 mph - N/A   Scattered Clouds
8:58 AM 38.3 °F - 32.2 °F 79% 30.39 in 90.0 mi Calm Calm - N/A   Mostly Cloudy
9:58 AM 44.1 °F - 32.4 °F 63% 30.39 in 90.0 mi East 1.2 mph - N/A   Mostly Cloudy
10:58 AM 50.2 °F - 32.4 °F 50% 30.38 in 90.0 mi West 2.3 mph - N/A   Mostly Cloudy
11:58 AM 54.5 °F - 31.5 °F 42% 30.35 in 90.0 mi Variable 2.3 mph - N/A   Partly Cloudy
12:58 PM 58.5 °F - 30.4 °F 34% 30.30 in 90.0 mi North 2.3 mph - N/A   Partly Cloudy
1:58 PM 60.4 °F - 28.0 °F 29% 30.28 in 90.0 mi Calm Calm - N/A   Partly Cloudy
2:58 PM 61.2 °F - 28.9 °F 30% 30.27 in 90.0 mi North 4.6 mph - N/A   Partly Cloudy
3:58 PM 61.5 °F - 29.3 °F 30% 30.25 in 90.0 mi Variable 1.2 mph - N/A   Partly Cloudy
4:58 PM 60.3 °F - 31.3 °F 34% 30.25 in 90.0 mi NE 3.5 mph - N/A   Partly Cloudy
5:58 PM 57.0 °F - 31.1 °F 37% 30.26 in 80.0 mi Calm Calm - N/A   Clear
6:58 PM 52.7 °F - 32.4 °F 46% 30.27 in 60.0 mi Variable 2.3 mph - N/A   Clear
7:58 PM 48.6 °F - 30.6 °F 50% 30.27 in 60.0 mi NE 2.3 mph - N/A   Clear
8:58 PM 44.6 °F 43.1 °F 29.7 °F 56% 30.27 in 60.0 mi SSE 3.5 mph - N/A   Clear
9:58 PM 42.3 °F 40.5 °F 31.3 °F 65% 30.29 in 60.0 mi North 3.5 mph - N/A   Clear
10:58 PM 39.9 °F 36.7 °F 31.1 °F 71% 30.29 in 10.0 mi West 4.6 mph - N/A   Clear
11:58 PM 37.6 °F 34.0 °F 31.3 °F 78% 30.29 in 10.0 mi SW 4.6 mph - N/A   Clear